RH
23 20 32 31 34 39 41 50 44 40 40 39 48 47 37 33 33 31 25 31 33 20 23 33 25 20 25 32 39 40 32 31 38 46 53 55 58 60 61 58 53 52 49 48 53 57 59 56 51 48 45 43 43 43 42 42 38 30 35 45 43 40 37 34 38 43 44 44 42 39 42 49 52 52 52 54 59 62 63 65 66 66 65 62 63 68
32 24 35 39 39 40 50 65 57 48 47 42 39 32 31 37 32 28 31 43 42 23 27 42 30 26 43 50 55 50 27 25 38 44 51 53 52 55 57 57 54 53 52 50 56 61 61 61 58 54 51 47 47 48 44 39 34 29 34 42 41 39 39 38 41 43 42 41 38 35 37 45 53 53 46 45 52 53 55 62 68 67 64 62 63 66
39 31 37 40 47 48 59 72 57 50 55 50 42 32 36 43 34 36 52 58 51 33 32 41 30 35 58 56 54 53 33 32 42 41 46 49 49 52 54 57 56 56 57 55 59 64 64 63 61 59 56 51 50 48 44 37 29 27 33 37 38 40 43 44 46 47 43 39 38 33 32 39 47 46 43 46 51 50 50 56 63 63 62 65 67 69
34 41 45 46 54 47 51 63 49 45 56 55 43 30 39 46 33 40 56 58 54 41 33 38 34 41 59 53 46 51 44 41 44 43 47 49 48 49 50 55 56 56 58 55 57 64 67 67 65 63 60 57 54 50 46 40 28 25 31 34 37 41 44 46 48 50 45 41 39 33 31 35 36 36 42 51 55 58 58 56 61 65 63 63 63 65
26 38 45 47 55 46 39 49 44 34 42 57 52 35 41 46 35 40 48 53 62 58 45 39 40 53 60 47 41 45 41 38 41 40 41 45 47 47 48 53 55 56 56 53 54 62 68 70 69 65 61 59 57 52 50 40 24 20 28 34 38 42 44 46 49 53 48 39 35 32 34 35 34 37 44 51 55 60 59 58 63 65 58 55 58 64
27 32 36 34 46 51 41 46 52 43 39 54 60 50 47 43 39 45 49 55 62 59 49 33 37 68 74 52 43 42 38 37 37 33 32 36 41 46 49 49 53 57 55 52 53 58 64 68 68 66 63 61 57 54 50 35 16 16 27 37 41 42 44 46 48 54 51 39 32 33 35 35 38 41 41 41 45 50 52 56 60 57 53 56 58 61
33 39 42 31 40 51 44 44 53 52 44 43 53 58 54 48 47 50 48 48 50 48 51 46 41 61 72 58 47 41 35 34 33 31 32 33 34 41 45 43 49 55 55 54 53 55 60 65 68 67 64 62 58 55 49 32 18 18 27 38 44 43 45 48 50 55 54 41 32 33 33 31 34 33 30 32 37 43 49 54 54 50 55 62 61 59
34 35 42 39 42 45 41 44 50 52 44 39 53 61 53 44 44 54 49 42 48 44 53 71 53 42 58 57 48 45 38 32 30 30 32 32 32 36 40 40 44 49 52 54 53 54 59 64 67 65 63 61 58 56 49 35 26 24 30 39 45 46 49 53 50 52 55 42 31 32 32 31 33 29 24 27 34 39 41 43 44 46 55 62 61 61
37 23 33 42 40 39 44 52 54 47 36 42 59 55 44 40 46 58 49 43 55 40 43 73 53 34 57 63 53 47 37 32 33 29 29 30 30 31 35 37 39 44 50 51 51 53 56 61 64 61 60 61 58 55 47 35 27 26 31 40 45 47 53 55 48 46 50 41 31 30 28 30 35 33 28 29 33 33 29 29 33 40 50 54 53 56
31 24 39 42 33 42 50 56 57 41 30 44 56 48 44 54 61 60 47 44 53 39 42 65 48 32 52 66 59 42 31 34 36 31 30 29 27 27 32 36 36 41 48 48 49 52 53 57 61 60 60 60 58 55 49 39 33 31 33 38 43 47 55 55 44 41 43 37 32 30 25 27 34 37 35 36 38 33 26 26 29 32 40 46 47 47
31 33 47 37 29 47 48 46 51 38 31 39 43 41 42 53 63 69 70 54 41 47 59 64 51 36 42 62 62 42 35 39 34 31 31 28 27 26 29 34 36 40 46 47 48 51 52 53 58 60 60 60 59 57 55 49 43 40 37 36 39 44 54 56 45 38 39 35 33 30 24 27 34 38 38 37 38 34 28 27 27 28 35 43 50 52
37 24 35 33 29 38 28 27 36 34 39 41 40 45 40 44 54 63 73 52 35 55 65 64 59 40 39 57 57 44 43 41 34 33 30 28 30 29 31 33 34 40 46 46 48 53 57 59 63 63 61 62 60 58 58 54 50 48 43 39 41 42 47 54 49 41 39 37 33 29 25 30 38 39 39 35 32 31 29 26 25 28 34 39 47 52
41 27 34 30 26 28 18 26 31 30 43 40 39 48 42 43 50 54 62 53 50 59 55 60 59 41 46 54 47 45 41 36 37 36 33 35 36 34 35 32 32 42 49 49 50 55 61 65 67 68 65 64 62 59 58 56 55 56 52 47 46 40 38 47 51 48 46 42 38 33 26 32 43 44 43 40 33 32 33 30 26 28 33 36 37 41
41 46 42 24 23 26 20 30 32 28 35 27 30 42 41 44 48 55 64 53 50 55 54 60 53 45 54 45 40 48 41 36 41 39 37 42 42 40 38 34 33 40 48 52 53 56 61 64 66 68 66 65 64 60 58 57 57 60 61 58 52 45 42 47 51 51 51 48 46 42 31 31 43 47 47 45 40 37 37 36 33 30 32 33 35 40
37 43 42 27 25 25 18 27 33 34 34 28 32 35 36 50 51 51 56 44 42 52 53 47 42 53 54 34 40 50 40 39 39 37 41 41 41 41 38 39 40 41 46 53 57 59 61 62 64 66 65 65 65 63 60 58 60 63 65 64 61 57 56 57 55 53 53 51 49 48 39 33 40 46 45 42 41 40 39 40 39 36 35 33 36 45
29 33 45 34 24 21 16 21 25 25 30 35 37 28 28 45 48 45 49 51 51 50 50 43 46 66 58 35 45 48 40 43 38 34 38 37 37 36 34 39 41 44 50 55 60 62 62 62 62 64 66 65 64 65 63 61 62 65 65 66 66 64 63 62 60 57 55 53 50 50 46 38 38 44 46 43 40 41 41 42 41 40 40 37 38 47
31 39 48 33 23 22 16 19 18 14 28 40 32 27 31 33 37 42 50 64 62 47 52 52 46 62 54 33 42 46 43 46 39 35 36 35 36 33 34 36 34 38 47 54 61 60 59 60 60 63 65 65 66 66 66 63 61 61 62 65 68 70 70 66 63 61 60 58 54 52 51 44 40 43 46 45 42 41 43 45 44 42 43 42 41 47
43 49 50 32 21 22 19 21 22 18 27 37 30 32 37 34 46 52 46 63 67 52 61 62 46 54 52 39 46 49 46 49 45 40 37 36 36 35 37 34 30 33 37 45 56 60 60 57 55 59 62 64 66 67 67 65 63 63 63 64 67 71 72 68 66 65 63 62 59 56 55 52 47 44 45 47 44 43 45 47 47 44 45 47 43 46
45 47 53 45 26 26 30 23 25 31 30 30 31 32 34 40 58 60 47 55 60 52 65 71 58 53 49 47 51 47 46 52 49 43 40 39 40 41 42 36 31 32 33 37 44 56 67 63 54 53 55 59 63 63 66 68 69 69 66 65 66 67 69 69 70 69 66 65 62 59 60 58 55 49 46 48 48 47 48 49 49 46 48 52 49 49
48 40 49 54 32 28 41 36 37 46 38 30 31 34 43 52 55 51 47 50 51 55 69 69 56 53 55 55 51 47 53 53 46 46 45 43 43 42 43 41 35 35 37 38 37 41 55 61 57 52 52 54 56 59 63 66 71 74 71 70 69 68 71 73 74 72 68 67 65 63 62 61 60 55 49 51 52 51 51 50 49 48 50 55 54 53
51 40 48 63 46 32 42 46 46 50 49 45 40 38 45 49 45 41 41 46 50 60 74 67 55 60 70 66 51 48 57 53 46 47 44 41 43 41 42 42 37 37 38 39 40 38 41 48 50 50 52 52 51 55 59 62 68 73 74 74 72 71 73 74 75 74 71 69 67 65 64 62 62 59 53 53 55 54 53 52 51 50 53 57 57 55
48 46 56 64 51 41 45 46 40 40 49 53 43 36 37 40 43 38 40 57 59 55 67 70 60 63 68 66 57 51 56 55 48 45 40 37 40 40 41 39 34 36 36 36 40 39 39 41 39 41 49 52 52 52 54 58 64 69 73 74 74 75 74 72 73 73 72 72 70 67 66 64 63 61 56 54 55 55 54 53 53 52 55 59 59 57
60 63 58 53 53 50 44 40 34 29 36 41 40 44 46 45 47 43 48 70 68 56 65 67 62 68 72 68 61 52 55 56 50 47 40 34 38 40 38 35 32 35 37 36 38 39 40 39 34 34 39 47 54 55 55 56 59 64 71 75 76 76 75 75 75 75 76 75 72 69 67 66 64 62 59 56 55 55 54 54 56 56 58 60 60 60
60 62 50 54 69 60 40 38 41 38 36 33 37 48 47 39 47 58 67 73 65 61 67 61 60 73 79 75 62 49 50 49 43 44 41 34 37 39 37 37 37 38 40 40 41 41 40 37 36 38 38 40 47 55 60 62 61 64 71 77 78 75 75 77 78 80 82 78 74 71 68 67 66 63 61 59 57 55 55 57 59 59 59 60 61 62
42 57 54 51 58 54 50 52 48 49 49 39 35 41 42 37 42 57 67 62 59 65 65 61 64 68 69 69 60 47 44 41 37 42 42 37 35 35 37 41 43 44 45 43 43 44 43 42 43 44 44 43 43 46 54 62 67 70 72 75 77 76 76 75 75 77 79 79 78 75 71 69 67 65 63 61 60 58 58 60 62 61 59 61 62 60
36 55 57 49 53 55 57 56 51 56 56 44 39 38 38 38 36 44 51 47 59 74 66 61 68 65 59 57 52 49 44 36 39 47 46 40 37 36 39 43 45 48 48 45 47 48 47 48 49 48 49 50 49 46 46 51 61 71 76 76 76 77 75 73 74 74 74 77 80 76 73 72 70 68 65 63 63 62 62 64 63 61 60 61 61 57
55 58 58 59 64 58 47 46 53 58 47 38 41 38 38 45 45 50 52 46 60 72 61 60 64 54 49 47 43 47 42 34 44 54 48 43 43 43 45 48 49 51 52 51 51 51 50 52 55 54 52 51 51 49 45 43 48 60 72 76 78 80 76 72 76 76 72 76 80 79 77 74 73 71 69 68 67 65 66 65 62 61 61 61 59 57
57 54 60 59 57 54 47 44 49 50 40 37 42 41 44 51 48 47 49 52 60 57 51 67 70 51 47 47 35 32 34 36 46 51 45 43 48 52 54 55 55 55 58 58 55 55 56 57 60 59 55 53 52 50 47 42 38 42 52 61 69 79 82 80 81 79 75 78 81 81 78 75 76 75 73 72 71 68 67 65 62 62 61 60 60 59
45 48 60 55 52 58 54 49 52 51 46 42 42 43 47 51 49 45 50 59 61 49 46 65 69 52 47 49 41 34 33 37 43 49 50 50 56 65 64 61 61 62 62 60 59 61 60 60 64 63 58 55 54 52 51 48 41 37 38 42 51 66 79 85 86 84 84 85 86 84 81 78 79 79 77 75 73 70 67 65 64 63 61 62 62 62
49 58 65 54 52 59 55 52 54 52 49 46 44 47 49 54 57 53 54 61 59 51 50 57 60 55 48 48 46 40 39 46 55 62 62 59 64 71 70 66 67 68 65 64 64 66 66 66 68 65 60 58 57 55 54 52 50 47 42 36 38 48 63 78 86 87 88 90 91 89 88 87 84 82 81 78 73 71 68 66 65 63 63 64 63 64
50 62 70 57 54 66 63 56 53 52 56 54 48 52 55 57 61 56 55 59 54 51 54 53 56 59 57 53 49 48 53 58 60 61 62 67 73 74 70 70 70 69 66 66 68 69 71 73 72 70 67 64 61 59 58 56 55 56 53 46 38 37 48 67 81 86 87 87 88 88 90 90 86 83 81 78 74 71 68 68 66 64 65 65 65 67
52 63 74 63 58 68 64 55 55 56 58 55 52 55 53 53 60 57 55 57 53 47 46 46 52 61 66 63 58 65 72 67 61 62 63 70 76 71 67 68 68 69 68 67 68 70 72 74 74 74 71 66 63 62 61 60 59 59 60 57 49 42 48 62 73 80 86 87 86 89 89 86 84 82 80 76 73 71 69 67 66 66 66 66 66 66
56 54 66 66 61 70 67 56 57 59 57 60 66 61 49 48 56 54 51 58 57 47 44 48 53 61 71 72 66 71 76 68 66 68 64 67 72 67 65 66 67 69 70 68 69 71 73 75 74 71 68 65 64 62 60 62 64 65 64 64 61 55 55 62 68 73 82 87 87 87 86 83 82 80 77 75 72 70 69 68 67 67 66 66 66 63
63 53 62 65 60 74 77 60 60 68 63 63 70 64 48 46 52 49 52 63 62 54 57 61 58 61 74 81 76 75 73 67 68 69 65 67 69 64 63 67 69 70 71 70 71 75 77 77 72 67 66 64 62 61 59 61 64 66 67 68 69 65 61 64 67 71 77 83 86 85 83 81 79 76 75 76 73 71 69 68 67 66 66 65 62 59
58 55 65 64 60 73 71 58 67 76 60 51 61 65 60 58 58 54 59 69 68 65 65 63 64 72 80 83 81 77 77 76 76 78 76 73 70 63 62 67 70 71 71 70 73 79 79 77 72 69 67 64 63 63 62 60 61 66 69 71 73 73 69 69 71 73 74 79 83 83 81 79 77 78 80 79 75 72 70 68 67 65 63 60 56 55
52 59 65 63 66 72 68 68 77 70 52 48 55 61 63 58 49 46 54 66 70 71 68 64 71 81 82 82 83 81 84 82 75 76 77 77 74 64 58 66 71 71 71 70 74 79 76 72 72 70 68 66 65 66 68 67 67 71 73 72 74 77 77 74 75 76 77 81 83 82 80 79 79 80 78 74 72 71 68 66 64 61 57 54 53 53
52 61 63 63 67 69 73 82 78 62 57 55 50 59 70 63 52 48 52 62 71 77 77 70 72 81 83 84 86 88 85 72 60 64 69 71 73 66 60 67 71 70 70 67 67 71 69 67 69 68 67 69 72 75 76 75 76 80 81 77 75 77 79 79 79 79 80 83 84 82 82 81 79 76 71 69 70 68 64 61 57 53 51 50 50 50
51 58 61 65 69 67 69 79 78 73 78 73 62 73 86 83 79 69 55 54 61 71 78 73 70 79 83 81 84 87 76 58 53 60 59 58 67 70 69 72 70 66 67 65 64 69 68 66 67 66 68 78 82 80 77 75 79 84 87 85 78 76 79 82 81 81 83 86 87 85 83 79 75 72 70 68 65 59 55 52 49 48 46 45 45 46
57 65 63 62 71 71 66 75 79 74 79 83 80 83 88 87 85 74 63 63 62 63 73 72 69 78 80 78 82 76 62 58 62 60 51 50 61 69 73 78 74 67 65 65 69 72 70 68 67 67 74 84 84 77 75 79 85 90 92 87 79 78 81 82 83 84 86 88 87 82 79 75 70 68 64 59 54 51 50 48 45 44 43 42 43 44
71 78 71 64 74 77 71 77 79 67 71 83 83 84 90 86 77 73 80 84 74 66 68 61 60 72 77 77 79 69 59 63 61 50 50 59 68 73 76 77 75 71 68 67 68 69 69 69 71 74 80 84 82 77 77 83 90 96 95 87 80 81 82 81 84 87 85 85 83 78 74 69 64 62 58 54 50 47 45 42 39 40 41 42 43 45
74 75 73 73 80 80 74 78 79 71 73 82 82 86 88 79 76 87 94 85 71 65 63 57 57 68 72 73 75 71 66 64 56 53 65 77 80 79 76 73 72 72 71 68 64 64 69 72 74 79 81 81 80 80 82 88 95 97 93 87 82 80 79 82 86 85 81 79 76 73 69 64 60 58 53 49 46 42 39 38 38 39 42 43 43 44
74 70 73 77 77 80 83 84 82 76 75 83 88 86 77 71 79 88 82 69 61 55 52 53 58 64 67 71 75 75 73 69 67 72 81 85 86 84 80 79 78 75 72 69 65 66 72 77 77 80 83 80 76 77 84 93 96 91 87 87 84 80 81 85 84 78 75 73 69 66 63 58 55 51 45 41 40 39 40 40 39 39 39 39 41 41
65 64 77 81 73 76 84 82 81 78 73 78 81 70 60 64 66 61 57 59 59 55 53 57 62 66 70 74 77 78 78 77 78 80 82 85 86 86 85 84 83 79 75 72 70 70 75 80 80 82 86 83 77 79 87 91 87 84 86 89 88 85 85 83 77 73 72 67 62 60 57 51 46 43 38 37 37 36 37 37 36 36 37 38 39 41
60 61 78 82 72 73 81 82 84 78 67 69 71 59 54 58 53 50 57 61 60 63 69 70 69 72 76 77 77 79 80 80 80 79 81 83 84 85 88 85 82 81 78 75 74 74 76 82 86 85 83 79 77 84 89 85 79 82 88 90 88 85 83 79 75 73 69 61 55 53 49 42 39 37 35 34 33 33 34 35 35 36 38 39 41 42
64 63 73 76 68 66 72 74 75 71 65 69 72 62 52 52 54 61 67 65 65 74 81 78 72 72 76 78 81 83 82 81 80 80 82 84 84 87 89 86 83 83 81 80 80 76 76 82 86 85 81 74 77 88 88 78 77 85 89 89 87 84 81 77 73 69 65 61 55 47 41 37 35 34 35 35 35 35 35 35 36 38 40 42 43 43
65 61 64 71 70 66 64 60 55 53 55 58 59 56 50 50 59 66 64 61 64 71 75 76 74 73 74 76 79 82 82 81 82 83 85 87 88 89 89 88 86 83 83 85 84 79 79 83 83 84 82 77 81 89 84 77 80 85 86 86 84 79 74 71 70 66 60 54 47 40 37 38 37 37 38 36 36 36 36 36 37 38 40 42 43 43
68 58 58 65 69 70 73 68 53 47 50 48 47 49 50 53 59 61 58 57 59 63 68 72 75 78 79 80 83 83 82 83 86 87 87 88 90 91 91 91 90 87 86 88 85 82 85 87 84 84 81 79 85 89 81 78 82 83 82 82 79 75 71 69 66 61 52 46 43 41 39 39 40 39 38 37 37 37 37 37 38 38 40 41 41 42
69 64 68 72 70 71 74 66 50 47 50 49 50 53 53 54 56 55 56 59 62 65 69 70 75 81 81 80 84 86 85 86 88 89 90 91 91 92 92 93 92 90 89 87 85 85 89 88 86 83 77 79 87 86 78 78 82 82 80 80 75 73 73 68 61 54 47 43 43 40 36 36 38 37 36 37 38 38 37 38 38 39 40 40 39 39
65 68 72 72 72 75 73 60 53 55 55 51 54 58 56 54 53 52 55 62 67 71 72 71 73 78 77 75 79 85 87 87 88 89 91 91 91 93 93 92 91 91 90 88 85 87 87 85 84 79 70 73 86 85 74 73 77 77 76 75 71 68 63 54 46 42 40 37 36 34 33 34 36 36 36 37 37 37 37 38 39 40 40 37 36 35
71 72 69 73 82 86 74 58 55 62 60 51 48 50 48 48 52 55 58 62 63 64 67 68 68 69 73 76 79 85 89 87 86 91 93 93 94 94 92 92 93 91 90 88 86 87 86 84 84 80 72 76 88 85 73 72 74 72 70 70 66 59 51 43 39 39 38 35 33 33 33 34 34 36 37 37 37 37 38 39 40 39 35 32 33 35
74 68 63 71 81 76 61 53 55 60 59 51 45 45 47 49 56 61 59 57 57 58 61 65 66 68 73 75 76 82 90 88 86 92 96 95 94 92 90 92 95 94 92 90 89 90 89 86 85 85 81 85 91 83 73 76 80 73 68 65 59 52 46 42 42 43 40 36 33 32 33 34 35 37 38 37 36 37 39 39 38 35 31 30 34 36
Wind_Speed
3 1 2 4 6 7 7 5 6 4 5 4 4 4 1 1 3 5 5 6 2 3 3 4 6 4 4 8 7 1 4 7 7 7 7 7 7 8 10 10 12 11 8 8 15 21 22 23 26 27 28 28 26 25 24 22 21 20 21 22 21 20 20 20 20 19 18 16 14 12 11 11 10 8 6 6 5 5 4 4 3 2 1 2 1 1
4 1 5 8 9 7 5 4 4 4 4 3 3 2 3 0 3 5 4 6 3 3 3 4 3 5 5 6 7 4 3 7 9 10 10 11 10 9 11 12 10 6 3 7 12 16 17 19 22 25 27 29 28 27 26 24 23 21 21 23 23 23 23 21 20 19 17 16 14 13 12 11 10 7 5 6 5 4 4 3 2 1 0 1 1 1
4 3 10 9 5 3 2 3 5 5 5 3 2 1 3 2 3 6 5 6 4 2 3 4 2 5 7 6 7 6 3 5 8 11 11 12 11 9 10 10 8 6 5 8 10 13 17 18 21 24 27 29 28 28 27 25 24 24 23 24 25 26 25 22 19 18 17 15 13 12 11 11 10 8 7 7 6 4 3 3 2 2 2 2 2 3
2 6 9 4 6 5 2 3 5 4 3 2 3 2 2 3 1 3 5 6 4 2 1 1 4 5 6 5 6 5 4 3 5 11 10 10 12 12 11 9 9 10 10 10 11 11 13 16 20 23 26 27 26 28 29 28 27 27 27 27 28 27 25 23 20 17 16 14 13 12 11 11 10 10 9 8 6 5 3 3 3 3 2 2 1 1
6 9 4 2 5 6 3 2 4 4 1 2 2 4 3 4 2 4 4 6 5 5 2 4 5 6 5 4 6 5 3 4 1 4 6 8 11 11 9 9 10 12 12 13 13 11 12 16 21 23 25 26 27 29 30 30 31 31 30 30 29 28 25 23 20 18 16 15 15 14 12 11 10 10 10 8 7 6 4 3 3 2 3 3 3 3
8 7 1 1 3 5 5 4 4 6 2 4 3 6 7 6 3 2 2 5 5 5 4 3 2 5 5 3 6 4 4 5 4 1 5 8 8 8 9 10 11 11 11 12 13 14 14 17 19 21 24 26 28 31 32 33 34 34 32 31 30 28 26 23 21 19 17 17 18 17 15 14 13 12 10 8 8 6 4 3 3 3 5 6 5 4
5 5 1 2 4 3 5 4 5 6 4 2 5 7 7 5 4 3 2 3 2 2 4 2 3 4 6 4 7 5 5 7 6 5 7 7 6 8 10 11 11 12 12 11 12 14 14 15 18 20 25 29 30 30 32 33 35 34 33 32 31 28 26 24 22 20 19 19 20 18 17 15 14 13 11 9 8 6 4 4 3 3 5 6 6 6
3 5 5 2 2 3 4 4 5 7 7 3 5 6 7 5 5 5 5 3 3 3 3 4 4 2 4 5 6 5 6 9 9 8 9 8 7 8 10 12 13 14 14 13 13 14 14 15 20 24 29 31 30 29 31 34 34 34 33 32 31 29 27 25 23 22 21 22 21 19 17 15 14 13 11 10 9 7 6 5 4 4 5 4 5 6
1 3 4 1 3 2 4 5 7 8 4 6 6 6 4 4 5 6 6 3 0 1 3 5 2 2 4 6 5 5 4 7 8 9 10 9 10 8 8 12 13 15 16 15 16 16 15 18 25 29 30 30 29 31 34 35 36 35 34 33 31 29 28 25 24 23 23 24 22 19 17 16 14 12 11 11 10 9 8 7 6 6 5 4 4 5
3 4 5 4 3 4 6 5 8 9 4 5 4 4 3 4 4 4 5 3 2 2 4 6 1 2 4 5 4 3 2 6 7 8 8 9 11 9 7 10 12 13 13 15 16 16 18 24 29 29 26 27 29 31 33 34 35 36 35 34 32 31 29 26 25 25 25 25 24 20 18 17 16 15 13 13 12 12 10 9 8 6 6 5 4 4
4 3 3 4 4 6 6 4 5 7 5 3 5 5 5 5 4 3 2 3 2 2 6 7 4 4 2 5 4 3 3 4 4 6 8 9 10 10 7 7 11 11 12 14 14 14 18 21 22 22 22 25 26 27 29 31 33 35 35 35 35 33 30 28 27 27 27 27 24 22 20 18 18 17 16 16 15 14 13 11 9 7 6 6 5 4
7 3 2 3 3 4 3 0 1 1 2 5 5 4 2 3 4 4 4 3 1 4 7 6 3 4 2 4 5 5 5 4 4 6 9 10 11 11 7 2 7 9 11 13 13 11 11 11 14 19 21 22 24 26 29 31 32 35 37 37 35 34 32 31 30 30 29 27 26 24 22 20 19 19 19 18 17 16 15 13 10 8 8 7 6 5
5 3 4 5 2 4 4 0 3 6 5 5 4 5 3 2 3 2 3 1 3 5 5 3 2 2 4 6 6 6 7 7 5 6 8 8 9 10 8 3 4 5 7 9 10 10 9 9 13 19 21 23 26 29 31 33 33 34 37 37 37 36 35 33 32 32 30 29 27 25 23 22 20 20 20 19 19 17 15 13 11 10 9 8 7 6
3 5 4 3 3 1 5 3 2 3 1 3 4 4 3 1 1 2 4 1 3 5 4 2 2 2 3 3 5 5 6 7 5 6 5 2 5 8 9 7 4 5 5 5 6 8 10 11 14 19 23 25 28 31 32 33 34 34 35 37 38 37 36 35 34 33 32 31 29 27 25 24 22 21 21 20 20 19 16 14 13 11 10 9 8 6
0 4 3 1 2 2 3 4 5 4 3 3 4 5 4 4 3 3 3 3 3 4 4 3 1 2 2 2 5 6 6 5 3 3 3 7 7 7 10 10 8 3 3 4 4 5 7 11 16 21 24 27 29 31 33 34 33 32 33 35 37 36 36 36 35 34 34 32 30 29 27 25 24 23 22 21 21 20 18 16 14 13 12 11 9 8
1 4 6 4 2 2 3 2 5 6 2 2 2 4 2 4 5 2 2 4 3 1 3 2 2 3 3 3 6 5 3 4 4 5 10 11 9 11 12 11 10 7 3 3 5 4 5 7 13 19 24 28 29 29 31 32 32 32 33 35 36 36 36 37 37 36 35 34 32 30 29 27 26 25 23 23 23 22 20 18 16 15 14 12 10 9
1 4 6 4 3 2 3 1 0 2 1 1 1 2 4 3 6 3 1 0 3 1 3 1 2 4 1 1 6 5 5 8 8 10 11 10 11 14 11 9 9 9 7 4 3 4 3 4 8 12 15 19 23 27 31 33 35 36 36 35 35 34 34 36 38 38 36 35 33 33 31 28 27 27 25 25 25 23 22 21 18 17 15 13 11 11
3 3 6 0 0 3 1 4 4 3 3 4 1 4 3 1 4 3 0 2 4 1 4 1 3 4 1 1 5 6 7 7 8 8 9 10 11 11 8 8 9 8 8 7 5 3 3 4 6 8 10 12 15 21 27 32 35 36 35 34 35 34 34 37 39 38 38 37 36 35 33 31 29 28 27 27 26 24 24 23 21 19 18 15 13 13
3 2 7 1 2 5 4 4 2 6 4 4 3 2 1 1 1 1 1 1 1 2 3 3 2 3 3 4 2 1 3 4 6 6 8 9 8 7 7 8 9 9 8 7 7 5 2 5 7 9 9 11 13 17 20 23 26 29 32 34 34 35 37 37 37 38 38 38 38 37 35 33 30 29 29 29 28 26 25 25 23 21 20 17 16 15
2 2 5 4 1 3 5 3 2 4 6 3 3 3 2 3 3 0 1 2 2 2 2 3 3 2 5 5 6 6 5 4 5 6 6 5 5 5 5 6 7 8 7 7 7 6 5 3 5 9 12 13 15 17 18 18 21 25 28 30 32 34 33 33 34 37 38 39 38 37 36 35 32 31 30 30 29 28 27 26 25 23 21 20 19 18
3 2 4 6 4 2 3 0 4 3 1 2 3 3 3 1 1 0 0 2 2 3 2 1 3 4 5 4 6 7 6 5 5 5 4 3 3 3 3 5 6 6 6 7 7 7 7 9 7 0 9 13 14 15 16 17 20 23 24 27 30 31 30 31 33 35 37 38 38 37 37 36 34 32 31 31 30 29 28 27 26 24 22 21 21 19
1 1 3 3 4 2 4 4 4 5 4 3 2 1 1 1 1 1 2 2 1 2 3 3 2 6 5 2 2 5 5 5 4 5 4 3 4 3 2 3 4 5 6 6 7 7 7 10 14 12 5 9 13 15 17 18 19 22 25 28 28 27 29 33 34 36 37 37 37 38 37 37 36 34 33 32 32 31 29 28 26 24 23 22 21 20
2 3 2 2 3 4 7 6 3 3 3 5 2 1 2 2 3 3 4 3 1 1 1 4 1 5 5 3 2 3 4 4 4 4 4 3 5 5 4 4 4 5 6 6 6 7 7 9 14 15 12 7 9 13 16 18 21 24 26 26 24 25 28 30 31 33 34 35 36 37 37 37 36 36 35 35 34 33 31 29 26 24 23 23 22 20
1 3 2 2 3 4 8 6 2 1 4 6 2 2 4 3 3 5 5 2 1 2 1 2 1 5 5 4 2 2 2 2 3 1 2 1 4 6 6 6 6 6 6 6 6 5 7 11 13 14 15 13 9 8 12 16 20 22 23 22 23 27 28 27 25 26 28 32 35 36 36 37 37 37 37 37 36 35 32 30 27 25 23 23 22 20
2 0 1 1 4 5 7 6 5 5 3 3 0 2 2 2 4 2 1 2 1 3 4 4 3 5 4 5 4 3 3 4 4 4 1 2 3 4 5 6 5 5 6 6 7 7 7 9 10 12 14 16 17 15 10 10 15 20 21 22 25 28 29 29 28 28 29 31 33 35 36 37 38 38 39 39 37 35 33 29 26 24 24 23 22 19
1 1 2 2 2 3 2 3 3 3 1 1 0 1 1 2 2 0 1 3 1 3 3 4 4 4 5 5 6 5 5 5 6 6 4 2 2 2 2 3 4 5 6 6 7 6 5 6 8 11 15 17 18 20 19 15 10 13 19 23 26 28 30 31 31 32 34 34 34 36 37 38 38 39 40 39 37 34 31 28 25 24 24 23 21 17
3 1 2 5 5 6 5 6 5 3 1 3 2 2 2 2 1 3 3 2 3 3 2 4 5 4 7 6 5 5 4 5 6 5 4 3 1 2 2 1 2 4 5 5 6 6 6 7 7 9 13 16 18 20 22 22 19 11 12 19 23 26 29 33 33 34 36 36 35 36 38 39 39 39 39 37 35 32 29 27 25 24 23 22 19 16
4 2 2 5 5 7 7 7 5 2 2 5 4 3 5 5 3 5 4 5 4 3 5 6 5 5 7 6 4 6 6 6 6 4 4 3 2 2 2 0 4 6 6 6 6 7 7 7 6 7 11 15 18 20 22 23 23 20 16 15 18 21 25 29 31 34 37 37 36 37 39 40 39 38 37 35 32 30 28 26 25 24 22 20 18 16
4 2 3 3 4 5 5 6 5 3 3 5 5 6 6 6 5 6 7 6 6 5 8 7 6 7 7 5 5 7 6 6 6 5 4 2 2 4 4 5 7 7 7 7 7 6 5 5 5 7 10 14 15 18 20 21 23 23 22 21 19 18 20 23 27 30 32 32 32 35 38 40 39 37 34 33 31 29 28 26 24 23 21 19 17 15
3 2 3 1 3 5 5 5 4 4 4 4 5 7 6 6 8 8 7 6 7 8 9 6 7 9 7 6 8 8 6 5 5 3 3 3 4 6 7 7 6 6 6 6 6 6 5 4 4 5 8 12 13 15 17 19 21 22 22 22 21 20 19 19 24 27 27 26 26 27 28 27 29 33 33 32 31 29 28 26 23 22 20 19 17 15
2 2 2 2 3 6 6 5 4 3 4 5 7 6 5 6 7 7 4 3 5 7 8 7 7 9 6 5 8 7 4 1 1 3 4 4 4 5 6 6 5 5 6 6 6 6 5 5 5 5 7 10 12 13 15 17 20 20 21 22 22 22 20 18 22 26 27 29 30 30 27 21 21 27 30 31 31 29 27 25 23 22 20 18 16 15
2 1 2 4 3 6 4 5 6 4 2 6 7 5 7 7 6 5 4 5 6 6 7 6 5 6 5 3 3 4 4 3 2 1 4 4 3 3 4 5 6 6 6 6 6 6 6 6 7 8 10 14 16 17 17 18 19 19 20 21 22 23 22 19 21 25 28 29 29 29 28 23 22 25 27 29 30 29 27 26 24 22 20 18 17 15
2 1 0 1 2 6 4 3 5 5 5 7 7 8 10 10 7 5 3 5 7 6 4 5 5 6 4 2 2 1 3 1 2 4 4 3 2 2 3 3 5 6 6 6 7 6 6 7 9 12 15 19 21 23 23 22 20 21 22 23 23 24 24 22 21 24 27 28 27 27 26 25 25 27 28 29 30 29 28 27 25 22 19 18 16 15
4 4 3 3 3 5 4 2 4 4 6 8 5 8 11 10 9 7 6 7 7 5 3 4 5 4 3 4 6 4 2 2 4 4 2 2 1 1 3 3 4 6 6 6 6 6 6 9 13 17 19 21 24 26 28 27 25 24 25 25 24 24 25 25 24 24 27 28 28 27 27 26 27 29 30 29 29 29 28 26 23 21 19 17 16 15
3 4 3 2 3 4 2 2 2 7 8 5 2 4 7 7 8 7 5 5 6 5 4 5 5 4 4 3 4 5 5 5 5 4 3 2 4 3 2 5 5 6 6 7 6 6 7 11 15 19 22 24 26 28 30 31 30 29 28 27 26 25 25 26 25 25 27 29 28 27 28 28 29 29 25 22 22 24 24 22 20 18 16 15 15 14
5 3 2 2 2 1 1 3 5 6 5 5 5 3 2 1 3 1 5 6 3 4 5 5 4 4 3 3 4 5 4 4 5 4 4 5 6 4 0 4 5 5 6 7 7 8 11 14 16 20 23 26 28 29 30 31 31 30 30 29 28 27 25 25 25 26 27 29 29 28 29 30 30 28 25 23 23 23 22 20 18 16 16 15 14 12
5 3 2 2 3 2 3 4 3 4 7 6 4 3 1 2 1 2 3 4 4 3 4 3 3 4 4 4 5 4 2 3 5 5 5 6 6 5 3 5 6 7 8 10 12 13 16 19 20 22 25 26 28 28 30 31 31 29 29 29 28 28 27 25 25 26 26 28 29 28 29 30 30 29 29 30 28 24 21 20 19 17 15 14 12 10
4 5 4 3 2 2 2 3 3 3 5 5 3 4 4 4 5 3 2 2 4 4 3 3 3 5 4 4 5 2 3 4 3 5 6 6 7 6 5 6 8 10 11 13 15 16 18 20 22 24 24 24 25 27 28 29 30 28 27 27 27 28 28 26 25 25 24 25 27 28 29 30 32 32 32 30 27 24 21 20 19 16 13 11 10 8
2 1 4 3 1 1 3 4 3 3 5 5 5 7 6 5 5 0 3 1 5 4 3 3 5 6 5 5 5 2 2 3 4 5 6 7 7 6 6 6 8 11 13 14 14 16 19 21 23 23 23 22 24 25 24 25 27 26 25 26 26 26 27 27 25 22 22 23 26 28 30 31 32 31 29 27 26 25 22 19 17 14 11 9 8 7
5 3 3 3 3 2 3 3 3 2 3 4 5 6 6 4 2 4 2 4 5 5 4 4 5 6 6 5 4 2 1 3 5 5 6 6 5 5 6 7 8 11 13 15 16 18 20 21 21 21 21 22 24 24 22 21 22 23 24 26 26 26 27 26 22 19 21 25 28 31 34 35 33 30 28 27 26 23 19 17 15 13 10 8 6 5
3 2 1 2 3 3 3 3 3 2 2 3 5 6 6 3 5 4 3 5 4 5 5 4 5 6 6 5 3 3 4 6 6 6 5 5 6 7 8 10 12 12 14 16 18 21 22 21 19 19 20 22 23 22 20 19 19 21 24 25 26 28 28 23 18 20 25 28 31 31 31 32 31 29 28 27 24 21 18 16 14 11 9 7 5 3
2 2 2 0 1 2 3 2 2 3 3 4 4 4 3 3 2 2 4 4 4 6 5 4 6 6 5 5 5 5 6 7 7 7 6 5 7 8 9 11 12 12 13 16 19 21 22 21 19 18 19 20 20 20 20 18 19 22 24 25 27 28 23 19 22 27 30 32 33 32 30 29 28 27 26 24 22 20 18 14 12 9 7 5 3 2
1 1 2 2 1 1 1 0 1 2 3 4 2 3 3 1 2 4 4 3 4 5 5 5 5 5 4 5 6 6 7 8 9 9 7 6 7 7 8 9 10 12 15 17 19 21 21 19 19 19 19 19 19 20 19 17 19 22 22 22 22 19 17 24 30 32 34 35 35 33 32 30 29 26 24 23 21 19 16 13 10 8 6 4 3 3
1 1 1 2 1 0 0 2 3 3 3 3 3 0 2 4 4 3 2 3 5 5 4 4 5 5 5 5 6 7 7 8 9 9 8 7 7 7 7 8 10 13 17 19 21 23 21 18 18 18 18 18 19 19 15 13 13 12 9 7 9 16 24 29 32 34 37 37 35 33 33 31 29 27 25 23 21 18 15 12 9 7 5 5 5 5
3 3 3 3 3 2 4 5 5 3 3 2 3 2 5 6 4 4 5 4 4 4 4 4 5 7 6 5 6 7 7 8 9 9 8 8 7 6 7 9 11 14 18 21 23 23 21 19 18 17 15 16 19 15 9 4 3 3 5 7 15 24 28 30 34 37 38 36 33 33 33 32 29 27 25 23 21 18 15 11 8 6 6 6 7 6
4 2 2 2 3 3 3 4 4 3 4 4 3 4 6 6 5 4 4 5 5 5 5 4 6 7 7 6 6 6 7 9 9 9 9 8 7 7 7 9 13 16 18 20 22 23 22 19 18 16 13 16 18 9 1 4 6 9 12 14 21 29 33 34 36 35 33 32 32 32 33 31 28 25 22 20 18 16 12 9 7 5 5 6 7 7
3 1 1 1 3 4 3 4 4 4 6 6 6 6 6 7 6 5 4 6 6 6 6 6 7 8 8 7 7 8 10 10 9 9 9 7 7 7 6 8 11 15 18 19 22 23 22 18 16 14 10 14 14 3 6 8 10 14 16 18 22 28 32 34 33 31 29 31 32 32 31 29 26 22 20 18 15 12 9 7 5 4 4 5 6 7
2 1 2 3 4 3 4 6 8 9 9 8 6 6 5 6 8 7 6 7 7 7 7 7 7 7 7 8 8 9 10 10 9 9 8 6 6 6 5 7 11 15 18 21 23 22 19 17 15 11 9 12 9 2 9 12 14 15 17 20 24 24 24 25 27 29 29 30 31 31 29 27 23 20 18 17 14 10 7 5 4 4 4 3 4 7
2 2 3 3 3 4 6 8 8 8 8 7 6 6 6 6 8 8 8 7 7 8 8 9 9 8 7 9 9 8 9 10 9 9 8 7 6 5 6 10 13 15 18 20 21 20 17 16 15 11 8 12 7 8 14 14 15 17 19 21 22 20 19 20 23 25 26 27 27 27 26 24 21 19 18 16 13 9 6 5 4 3 1 1 4 6
2 4 4 2 3 5 6 8 6 4 6 8 7 7 8 8 8 8 9 8 8 8 9 9 10 9 8 10 9 7 8 10 9 7 7 6 5 6 9 12 14 16 18 19 19 18 17 16 16 13 9 9 6 15 19 17 17 20 21 19 18 17 20 23 24 23 23 24 24 23 23 22 20 19 18 15 11 8 7 5 4 2 2 4 5 7
4 5 4 3 5 7 9 11 7 4 7 10 9 8 8 7 7 8 9 9 10 10 8 8 9 9 8 10 10 8 8 9 9 7 6 5 7 10 13 14 13 14 17 18 16 16 16 14 14 11 6 6 13 21 22 19 17 18 19 19 18 20 22 24 24 22 21 22 23 21 20 19 19 18 17 13 9 8 7 6 4 3 3 4 5 7
Wind_Direction
91 90 274 225 232 238 232 201 181 186 159 148 116 118 151 115 295 286 272 295 46 96 308 250 240 285 290 278 286 237 160 180 192 190 196 196 189 194 196 199 200 201 198 183 190 193 190 186 182 180 179 179 181 182 183 182 183 184 181 179 176 171 168 162 155 152 153 153 150 146 145 137 127 127 132 142 156 175 193 201 206 205 251 294 290 251
57 120 246 231 224 226 224 192 152 115 102 101 116 92 348 354 269 277 258 307 2 118 299 296 255 273 271 268 284 302 142 163 184 191 196 199 200 200 200 203 199 190 155 168 194 199 193 188 183 181 180 181 182 181 183 184 183 183 184 183 178 173 170 166 162 159 157 159 159 156 154 146 135 128 134 149 158 182 204 207 205 182 18 338 47 87
12 265 250 242 203 141 102 137 119 97 95 75 105 85 338 265 283 299 290 317 1 94 293 320 340 277 274 272 278 288 242 193 184 188 197 198 200 208 208 204 185 171 172 183 198 201 196 189 184 184 183 185 185 182 184 185 181 181 182 182 178 174 171 169 169 167 165 167 167 163 157 149 140 131 133 141 139 144 164 174 158 111 95 111 102 87
311 253 245 226 134 124 81 117 113 101 95 83 115 121 285 264 277 290 296 322 347 15 253 358 6 305 301 308 285 277 256 248 185 185 199 198 200 208 206 199 187 182 185 192 200 201 194 188 186 189 188 187 186 183 184 183 180 179 179 178 176 176 174 173 176 177 176 176 174 167 158 152 146 141 141 141 142 145 149 152 146 121 106 140 173 120
252 255 241 99 133 158 182 181 144 153 231 302 165 154 209 242 214 215 273 320 341 350 13 74 20 320 326 338 294 307 334 313 334 169 201 210 213 213 200 197 197 193 191 193 196 195 193 191 190 191 190 188 187 186 186 184 180 179 179 177 177 177 177 178 181 183 184 181 174 167 159 155 151 149 152 155 159 167 170 164 158 123 96 119 166 163
261 265 219 243 239 168 169 215 199 173 198 310 244 193 197 210 209 213 323 8 25 350 328 47 32 290 318 324 269 295 339 306 325 319 235 225 217 210 203 203 198 197 200 200 198 195 197 194 188 190 191 189 190 190 188 185 182 180 180 179 180 180 180 182 186 188 190 186 179 174 170 168 164 164 166 167 166 169 175 171 163 124 98 98 117 140
263 289 52 213 245 173 173 225 224 169 136 307 246 201 182 160 137 140 111 69 87 261 295 47 147 248 318 312 268 305 334 299 299 292 270 257 228 205 207 207 194 193 200 204 205 202 199 188 182 190 195 194 193 191 188 187 185 184 183 182 183 184 183 185 190 195 197 192 188 187 186 184 184 179 173 171 171 175 191 190 176 149 121 105 103 114
263 326 2 52 95 133 174 227 219 151 125 236 235 165 149 140 146 155 140 138 206 237 316 14 112 191 296 279 278 336 338 305 304 294 284 278 257 225 210 207 196 193 195 195 201 205 201 189 186 193 198 197 194 190 188 188 188 187 186 185 187 187 188 190 195 199 200 196 195 195 195 195 197 189 175 173 176 181 196 198 186 166 146 132 118 119
252 311 299 236 81 132 198 214 188 143 134 244 213 155 153 160 165 152 130 146 241 54 305 320 57 164 269 277 306 354 330 290 288 282 284 284 277 259 220 208 201 196 194 193 197 201 198 192 195 198 197 195 192 190 190 189 189 189 188 188 190 192 194 195 196 199 200 200 200 200 201 202 202 195 183 181 185 190 194 190 186 175 154 141 131 127
240 228 215 162 130 211 230 219 170 155 190 239 164 116 50 58 94 105 118 135 57 64 245 265 222 179 267 286 309 346 285 263 268 275 280 277 277 276 241 212 202 197 194 197 199 199 198 198 198 198 194 192 192 192 191 190 190 190 190 192 193 196 197 196 196 198 199 201 203 206 208 207 204 198 192 190 193 195 194 189 185 179 164 150 136 127
289 269 178 157 180 202 211 203 167 172 182 137 92 65 30 25 36 44 79 103 79 287 250 244 208 168 264 285 259 235 231 245 279 291 288 287 296 305 286 219 197 193 192 198 203 200 199 197 194 190 190 191 192 192 192 192 192 192 193 195 196 197 198 198 197 198 201 203 207 211 212 210 206 201 198 197 197 197 196 194 190 184 177 172 165 155
333 324 211 247 220 159 146 167 23 6 78 88 81 69 50 337 9 18 358 40 138 259 261 242 187 132 194 262 253 253 270 270 254 267 283 299 314 322 322 230 185 193 196 194 198 198 186 176 177 184 189 190 190 192 194 194 194 195 196 197 198 200 201 201 200 201 205 206 209 213 213 211 208 206 206 205 205 204 201 197 193 191 192 190 190 186
328 255 264 304 277 131 115 280 332 357 29 79 100 84 80 324 2 350 303 323 210 251 259 220 140 134 222 248 260 268 283 280 257 252 272 295 319 340 358 31 140 172 206 204 194 185 175 172 177 181 185 187 191 195 196 196 196 196 197 198 200 202 204 205 204 204 207 209 210 211 212 212 211 211 213 214 216 216 212 207 202 201 204 205 207 208
324 303 324 341 307 107 124 153 266 317 21 140 148 121 128 132 50 280 271 285 254 267 276 228 185 255 269 271 268 265 284 299 299 278 269 316 359 10 22 29 73 131 181 221 218 191 183 184 182 182 186 189 194 197 197 198 199 197 198 200 202 204 206 207 207 207 209 211 212 212 212 213 213 214 218 221 224 224 222 220 218 217 217 218 221 222
324 304 295 181 278 336 109 157 174 167 170 195 173 136 145 154 160 228 230 209 248 275 296 295 219 191 169 256 267 260 281 321 320 289 27 55 38 36 43 36 32 52 150 178 225 226 207 194 185 184 189 193 197 198 198 199 200 199 199 201 203 205 206 207 208 209 211 213 214 213 213 214 216 218 221 224 229 230 229 229 229 228 227 229 227 224
136 257 255 259 276 104 112 210 171 128 103 249 165 110 152 180 160 188 198 180 192 264 295 289 231 216 186 253 286 276 301 10 34 37 45 46 39 44 42 36 35 24 21 135 177 215 244 224 202 194 193 196 198 198 199 201 201 201 202 203 205 206 206 207 208 210 212 214 215 215 215 215 217 220 223 225 229 232 233 234 235 234 232 234 229 225
125 266 275 311 343 94 137 229 270 104 134 245 111 167 238 188 130 125 281 15 81 90 277 262 245 292 346 298 314 347 31 23 24 37 43 39 41 48 39 27 39 37 26 35 143 175 199 233 234 225 213 207 202 198 200 203 204 205 204 204 205 206 206 207 209 210 212 213 215 216 217 217 218 220 223 225 228 232 234 236 238 237 234 234 231 229
146 259 287 347 186 280 127 80 23 7 113 119 163 229 243 47 88 110 167 358 44 222 275 285 209 276 336 204 313 3 43 29 20 36 40 33 37 44 36 24 28 37 40 36 46 97 155 188 224 243 244 237 224 212 209 208 208 208 207 207 206 205 207 209 209 210 212 213 215 216 217 218 219 221 224 226 229 232 234 235 237 235 233 233 231 232
120 234 287 297 177 292 357 77 8 336 30 111 162 209 104 100 289 6 115 209 283 232 281 308 257 241 216 213 242 104 103 60 37 44 46 39 39 38 29 23 21 26 32 31 38 44 80 173 196 219 234 240 235 229 227 223 218 215 212 211 210 209 210 211 210 210 212 215 216 217 217 218 219 221 224 226 229 232 233 234 234 232 231 230 229 231
66 137 277 297 260 296 353 54 205 311 347 30 57 24 38 134 168 185 126 171 203 218 251 301 312 265 235 213 167 163 166 124 81 63 60 51 45 44 36 30 25 25 21 18 27 25 26 89 173 201 214 228 233 233 234 232 229 226 221 218 215 214 213 213 212 212 213 215 216 217 217 218 219 221 223 226 228 230 232 232 232 230 229 227 227 228
26 84 251 294 318 314 329 253 168 176 318 16 22 357 344 24 90 312 290 133 148 183 200 235 284 269 254 215 159 162 173 157 127 99 89 76 71 67 41 35 37 35 22 10 14 13 12 23 25 287 213 220 226 232 236 234 232 231 230 228 224 219 216 216 216 216 216 216 216 217 217 218 218 220 222 225 227 229 230 229 228 228 226 224 224 224
29 130 198 291 333 310 256 240 190 182 171 148 177 228 211 187 77 331 288 307 119 171 180 165 232 268 265 258 185 162 161 179 161 119 90 36 43 59 33 34 50 51 39 18 15 18 15 14 12 7 316 237 227 227 231 233 232 230 230 231 230 227 223 220 219 219 218 218 217 217 219 219 218 219 221 222 224 226 226 226 225 224 222 219 218 218
141 100 113 256 260 244 261 268 249 222 157 119 142 159 121 119 110 145 218 264 288 230 158 128 168 271 269 290 280 183 170 205 206 134 98 27 358 4 8 11 33 48 50 45 36 29 26 22 19 19 10 326 257 237 230 226 226 228 229 229 230 232 232 229 226 224 220 219 219 220 220 220 219 219 220 221 222 223 223 223 221 220 218 215 212 212
85 80 71 293 292 306 304 313 351 24 89 91 47 51 90 100 115 152 180 182 203 228 146 123 239 265 278 312 308 219 224 272 283 292 116 93 338 344 355 357 11 29 38 49 47 34 27 25 21 20 17 6 340 288 251 234 227 225 226 226 226 230 234 234 234 234 228 223 223 222 221 220 220 219 219 220 221 222 221 219 216 215 214 211 208 208
316 309 105 356 331 335 335 346 351 344 48 103 357 25 84 87 80 92 103 89 232 232 160 160 231 241 262 313 323 307 333 349 319 296 253 104 357 344 354 353 357 16 27 36 39 32 28 24 16 10 8 7 4 356 329 275 245 231 225 224 225 228 231 231 230 233 234 231 227 224 223 222 221 219 219 221 220 220 218 214 212 211 210 206 205 206
232 215 147 149 238 247 279 289 271 284 324 77 122 99 32 26 66 352 47 90 251 259 164 165 219 257 283 308 314 311 331 337 314 303 313 348 338 323 357 360 360 20 27 26 28 28 33 34 21 10 8 7 6 5 2 352 314 255 236 231 228 228 230 232 230 229 231 231 228 226 225 224 221 220 220 220 218 216 213 209 207 205 204 203 203 205
118 71 169 156 180 203 211 232 230 197 226 273 256 197 230 262 134 110 106 158 203 222 244 213 195 244 278 272 277 290 295 288 282 287 305 303 262 234 224 239 19 30 26 22 23 20 25 33 22 9 7 6 4 3 3 3 358 329 273 253 244 236 230 229 229 228 229 230 228 227 227 225 223 221 220 218 216 212 208 203 202 201 200 201 203 204
85 346 259 167 197 218 210 230 253 248 227 242 245 219 211 217 163 125 171 217 179 169 267 251 188 212 251 239 258 295 287 274 271 273 279 258 224 255 256 355 33 25 16 17 22 18 17 16 4 1 4 3 0 359 357 357 356 352 336 307 280 258 242 233 230 228 229 229 228 227 228 228 226 222 219 217 214 208 203 199 198 199 199 201 203 205
101 280 264 202 251 259 232 238 259 264 242 229 222 213 209 213 200 189 213 209 163 185 249 242 196 219 239 226 251 276 273 271 274 277 289 312 334 337 360 22 21 15 11 13 11 4 6 1 348 348 352 354 354 351 349 347 346 345 342 335 321 296 266 248 239 236 234 233 231 231 231 229 224 220 216 213 209 203 200 197 196 197 199 201 204 205
122 263 275 241 304 305 281 265 259 249 252 253 244 228 213 214 213 212 224 207 186 219 248 241 230 242 240 217 234 255 267 264 268 305 356 1 341 348 10 18 13 9 4 359 348 339 340 338 331 330 335 339 341 340 338 336 336 335 332 330 328 318 299 271 251 243 240 241 241 242 245 240 226 217 212 207 203 199 196 195 194 195 198 201 203 202
57 282 295 51 4 302 293 308 309 263 235 245 256 239 203 211 228 233 235 201 199 241 255 257 262 265 258 220 231 264 298 251 119 18 354 321 321 355 17 14 7 3 350 337 327 323 323 324 328 328 324 323 324 325 325 324 324 323 322 322 319 315 310 289 261 248 241 239 237 238 246 249 232 219 212 203 199 195 192 191 190 191 195 198 200 200
40 295 340 41 346 278 289 317 310 318 301 253 246 214 193 207 221 222 211 191 192 219 247 269 276 265 265 239 231 305 356 83 115 304 294 304 340 31 37 16 359 346 336 329 321 318 324 328 330 327 323 323 322 320 318 318 317 313 311 312 312 310 309 293 268 253 244 239 235 232 234 233 223 217 211 202 196 192 189 187 185 186 192 196 199 201
154 178 302 74 268 270 280 293 305 350 334 272 240 194 196 212 220 226 248 227 200 184 202 235 237 234 239 181 144 351 359 44 236 248 259 298 347 39 35 7 341 323 317 318 313 313 319 319 319 318 318 320 320 318 318 317 312 308 305 304 305 306 304 295 275 256 245 238 233 229 226 220 213 210 208 203 197 191 185 183 182 184 190 195 198 200
167 171 198 176 215 263 283 340 350 323 270 255 230 184 191 204 207 212 230 226 210 192 190 220 236 236 210 148 149 180 224 242 247 244 260 268 178 80 2 327 314 310 304 302 301 300 302 306 310 313 314 315 315 315 316 314 310 308 305 303 301 300 298 295 283 263 247 238 230 224 218 212 207 204 203 201 195 188 181 179 179 181 188 193 193 190
201 189 206 181 194 246 289 49 295 260 251 261 282 208 197 187 174 188 235 246 226 223 233 245 247 224 196 173 172 190 218 255 271 268 271 230 175 141 356 320 310 307 302 301 297 290 295 302 306 310 312 314 314 312 311 310 309 307 304 301 299 296 293 291 285 268 251 239 230 221 212 207 202 198 193 187 183 180 176 175 177 178 181 184 181 177
213 202 198 183 194 227 126 152 206 248 283 300 300 285 242 181 128 163 290 300 276 215 219 237 250 240 226 228 223 224 246 293 311 291 247 220 190 161 172 296 288 283 281 283 280 283 294 300 303 306 308 308 309 307 305 303 303 302 300 299 298 295 292 287 281 268 251 237 227 218 208 200 193 186 178 170 171 174 172 170 170 169 169 167 164 163
193 177 170 209 215 181 178 209 242 311 314 299 298 323 313 272 270 240 253 282 288 242 197 190 240 256 251 248 255 266 329 16 348 306 259 228 218 212 217 240 255 265 269 272 277 284 293 299 303 304 304 304 304 303 301 301 300 297 294 294 295 295 293 285 275 264 248 232 221 212 201 191 181 172 167 166 168 169 165 161 159 157 158 157 153 151
190 183 174 193 221 156 182 256 294 301 279 267 273 288 275 253 258 239 162 222 273 260 205 181 241 251 247 266 276 287 58 48 322 286 272 256 249 251 255 255 260 267 270 275 282 287 292 299 302 302 303 301 300 301 302 301 298 293 290 290 290 291 289 281 272 260 241 223 211 200 189 181 171 162 159 159 158 155 151 149 147 146 148 149 145 145
355 172 143 155 218 134 166 228 240 224 242 249 261 276 286 282 273 253 99 217 265 270 238 218 250 255 237 239 240 183 60 346 291 271 266 262 252 241 247 265 276 279 281 281 282 285 291 298 300 301 301 297 296 301 306 303 296 290 287 288 288 286 282 277 269 252 226 206 194 183 175 168 159 151 148 147 144 143 141 139 137 137 139 138 134 136
9 21 90 154 223 210 171 221 242 225 243 259 264 273 286 301 13 64 61 261 267 280 263 230 251 260 241 230 220 179 270 272 261 263 268 271 273 261 259 272 279 284 290 294 294 295 295 296 296 296 296 295 296 300 305 306 299 289 286 288 286 279 274 271 260 231 203 186 176 169 164 158 151 145 143 142 139 137 136 135 134 134 134 131 126 131
360 351 76 162 210 218 205 238 266 257 253 275 283 285 292 337 57 89 212 239 254 273 267 244 254 261 248 237 226 223 240 239 243 269 289 301 302 292 285 284 283 283 289 295 301 303 298 293 291 291 294 301 304 303 304 306 299 290 289 286 278 273 271 260 229 193 174 164 156 149 144 142 143 143 143 142 137 132 130 129 128 129 131 131 134 143
343 333 329 41 199 213 193 213 273 283 255 248 264 297 328 21 75 200 238 250 264 276 283 274 263 263 264 260 245 238 256 267 274 286 292 286 281 283 287 288 290 293 295 298 303 304 299 294 293 293 299 309 311 308 308 309 302 295 290 278 269 267 259 224 185 165 153 143 137 132 128 131 137 139 136 134 129 125 124 123 122 123 127 134 144 179
237 301 300 266 226 276 33 90 278 268 238 221 236 350 6 90 213 258 282 290 279 283 297 291 271 257 253 261 264 263 274 287 290 290 285 268 261 269 277 281 286 295 301 305 307 306 302 295 292 295 304 313 317 313 312 312 307 300 289 274 262 246 206 173 159 149 139 131 129 131 133 136 138 134 128 124 122 121 122 126 129 131 139 156 184 228
226 178 262 262 226 131 169 227 221 214 216 196 161 131 263 237 234 238 247 280 290 284 268 263 269 261 238 242 267 276 280 284 284 286 288 281 271 270 275 280 288 297 303 304 304 305 304 295 288 294 305 318 327 324 316 311 310 307 297 261 209 173 157 151 146 139 132 129 131 136 137 136 133 129 124 121 121 124 127 132 139 151 170 194 217 239
224 192 200 234 244 216 209 229 241 250 255 225 178 215 258 264 254 210 199 235 271 260 226 227 265 274 261 248 260 270 274 277 277 279 282 280 279 278 280 286 292 297 300 301 300 302 303 296 287 288 301 324 336 332 315 308 348 49 82 116 137 138 135 133 131 128 129 133 137 137 134 131 128 126 123 121 119 121 127 136 146 162 191 216 233 250
244 230 166 192 270 287 265 254 263 269 270 267 253 255 267 270 258 232 232 252 256 248 239 236 253 268 271 267 265 265 265 268 272 276 276 278 284 285 281 288 296 298 298 298 298 300 302 296 285 279 295 331 342 338 193 129 105 112 114 116 122 125 125 124 123 125 130 136 137 134 130 128 125 123 123 122 118 116 120 131 145 164 197 224 242 259
277 301 90 224 274 302 294 282 292 289 282 287 286 277 274 269 260 252 255 261 259 257 255 250 251 259 264 266 262 261 264 264 265 270 274 276 280 280 279 286 292 294 294 293 295 299 299 291 279 274 298 336 346 355 141 126 123 132 131 124 122 124 126 128 128 132 138 138 137 137 134 131 130 130 131 131 128 122 119 123 138 171 205 229 254 271
275 334 324 243 237 242 247 265 285 289 284 279 271 266 265 261 260 259 255 256 263 267 265 259 254 251 255 259 255 254 262 266 262 262 267 267 267 269 274 278 281 287 292 294 295 298 295 283 272 272 306 330 332 157 137 123 125 136 137 134 133 134 137 141 142 145 146 145 144 143 140 137 138 141 143 141 134 127 129 141 155 180 208 240 281 300
214 286 282 257 268 277 268 269 281 291 290 275 253 248 250 250 255 261 260 256 256 259 264 264 257 247 245 254 254 250 257 263 260 256 257 259 262 265 269 276 281 286 290 293 296 297 294 282 268 261 296 316 296 172 150 139 136 139 141 144 149 153 153 150 147 145 144 143 143 143 143 145 149 151 151 146 137 129 135 150 161 174 199 325 334 328
159 247 255 261 286 279 267 267 268 275 283 279 268 262 261 258 262 268 270 269 262 256 257 262 264 260 252 252 251 242 247 259 259 246 242 246 251 262 270 276 284 288 291 294 297 298 295 282 262 252 275 292 229 167 162 165 160 153 155 162 166 161 151 143 142 143 144 144 145 148 151 154 155 152 146 139 137 143 147 145 143 125 63 25 358 333
182 227 227 224 247 252 261 271 269 250 263 273 274 270 263 260 260 263 267 273 273 269 265 262 268 274 270 266 260 242 236 254 254 235 228 242 254 265 275 279 280 284 288 294 298 301 298 283 259 252 259 223 179 164 166 177 178 170 173 175 166 157 154 152 151 151 150 148 150 155 158 157 153 148 141 135 137 149 152 145 129 94 52 16 347 333